Weather History for KOUN - December, 2012

Change the Weather History Date:

Monday, December 3, 2012

  Actual Average Record
Temperature  
Mean Temperature 66 °F -  
Max Temperature 78 °F 53 °F 78 °F (2012)
Min Temperature 53 °F 32 °F 18 °F (1950)
Growing Degree Days 16 (Base 50)    
Moisture  
Dew Point 56 °F    
Average Humidity 73    
Maximum Humidity 100    
Minimum Humidity 37    
Precipitation  
Precipitation 0.00 in - - ()
Sea Level Pressure  
Sea Level Pressure 29.89 in    
Wind  
Wind Speed 17 mph (SSW)    
Max Wind Speed 28 mph    
Max Gust Speed 34 mph    
Visibility 10 miles    
Events      
Averages and records for this station are not official NWS values.
T = Trace of Precipitation, MM = Missing Value Source: NWS Daily Summary

Daily Weather History Graph

Daily Weather History Graph

Search for Another Location

Airport or City:

Trip Planner

Search our weather history database for the weather conditions in past years. The results will help you decide how hot, cold, wet, or windy it might be!

Date:

Astronomy

Dec. 03, 2012 Rise Set
Actual Time 7:22 AM CST 5:17 PM CST
Civil Twilight 6:54 AM CST 5:45 PM CST
Nautical Twilight 6:22 AM CST 6:16 PM CST
Astronomical Twilight 5:52 AM CST 6:47 PM CST
Moon 9:59 PM CST (12/3) 10:51 AM CST (12/3)
Length of Visible Light 10h 50m
Length of Day
9h 55m
Waning Gibbous, 78% of the Moon is Illuminated
Dec 3
Waning Gibbous
Dec 6
Last Quarter
Dec 13
New
Dec 19
First Quarter
Dec 28
Full

Hourly Weather History & Observations

Time (CST) Temp. Dew Point Humidity Pressure Visibility Wind Dir Wind Speed Gust Speed Precip Events Conditions
12:15 AM 64.4 °F 60.8 °F 88% 29.92 in 10.0 mi South 17.3 mph 27.6 mph N/A   Clear
12:35 AM 64.4 °F 60.8 °F 88% 29.92 in 10.0 mi South 18.4 mph 26.5 mph N/A   Clear
12:55 AM 64.4 °F 60.8 °F 88% 29.92 in 10.0 mi South 16.1 mph 23.0 mph N/A   Clear
1:15 AM 64.4 °F 60.8 °F 88% 29.92 in 10.0 mi South 16.1 mph 23.0 mph N/A   Clear
1:35 AM 64.4 °F 60.8 °F 88% 29.91 in 10.0 mi South 17.3 mph 23.0 mph N/A   Clear
1:55 AM 64.4 °F 60.8 °F 88% 29.91 in 10.0 mi South 19.6 mph 25.3 mph N/A   Clear
2:15 AM 62.6 °F 60.8 °F 94% 29.90 in 10.0 mi South 17.3 mph - N/A   Clear
2:35 AM 62.6 °F 60.8 °F 94% 29.90 in 10.0 mi South 15.0 mph - N/A   Clear
2:55 AM 62.6 °F 60.8 °F 94% 29.90 in 10.0 mi South 19.6 mph 25.3 mph N/A   Clear
3:15 AM 62.6 °F 60.8 °F 94% 29.89 in 10.0 mi South 17.3 mph 24.2 mph N/A   Clear
3:35 AM 62.6 °F 60.8 °F 94% 29.89 in 10.0 mi South 15.0 mph 24.2 mph N/A   Clear
3:55 AM 62.6 °F 60.8 °F 94% 29.89 in 10.0 mi South 17.3 mph - N/A   Clear
4:15 AM 62.6 °F 60.8 °F 94% 29.88 in 10.0 mi South 18.4 mph 25.3 mph N/A   Clear
4:35 AM 60.8 °F 60.8 °F 100% 29.87 in 10.0 mi South 15.0 mph 25.3 mph N/A   Clear
4:55 AM 60.8 °F 60.8 °F 100% 29.87 in 10.0 mi South 17.3 mph 21.9 mph N/A   Clear
5:15 AM 60.8 °F 60.8 °F 100% 29.87 in 10.0 mi SSE 11.5 mph 20.7 mph N/A   Mostly Cloudy
5:35 AM 60.8 °F 60.8 °F 100% 29.87 in 10.0 mi South 17.3 mph 24.2 mph N/A   Mostly Cloudy
5:55 AM 62.6 °F 60.8 °F 94% 29.86 in 10.0 mi South 16.1 mph 25.3 mph N/A   Mostly Cloudy
6:15 AM 60.8 °F 60.8 °F 100% 29.86 in 10.0 mi South 15.0 mph 19.6 mph N/A   Mostly Cloudy
6:35 AM 60.8 °F 60.8 °F 100% 29.86 in 10.0 mi South 17.3 mph 24.2 mph N/A   Mostly Cloudy
6:55 AM 60.8 °F 60.8 °F 100% 29.87 in 10.0 mi South 19.6 mph 24.2 mph N/A   Overcast
7:15 AM 60.8 °F 60.8 °F 100% 29.89 in 10.0 mi South 16.1 mph 23.0 mph N/A   Overcast
7:35 AM 60.8 °F 60.8 °F 100% 29.89 in 10.0 mi South 16.1 mph 25.3 mph N/A   Overcast
7:55 AM 62.6 °F 60.8 °F 94% 29.89 in 10.0 mi South 16.1 mph 25.3 mph N/A   Overcast
8:15 AM 62.6 °F 60.8 °F 94% 29.90 in 10.0 mi South 17.3 mph 24.2 mph N/A   Overcast
8:35 AM 62.6 °F 60.8 °F 94% 29.89 in 10.0 mi South 17.3 mph 28.8 mph N/A   Overcast
8:55 AM 62.6 °F 60.8 °F 94% 29.90 in 10.0 mi South 21.9 mph 25.3 mph N/A   Overcast
9:15 AM 62.6 °F 60.8 °F 94% 29.91 in 10.0 mi South 15.0 mph 23.0 mph N/A   Overcast
9:35 AM 64.4 °F 60.8 °F 88% 29.90 in 10.0 mi South 21.9 mph 26.5 mph N/A   Overcast
10:15 AM 64.4 °F 60.8 °F 88% 29.91 in 10.0 mi South 21.9 mph 28.8 mph N/A   Overcast
10:35 AM 66.2 °F 60.8 °F 83% 29.91 in 10.0 mi South 23.0 mph 28.8 mph N/A   Overcast
10:55 AM 68.0 °F 60.8 °F 78% 29.91 in 10.0 mi South 26.5 mph 33.4 mph N/A   Mostly Cloudy
11:15 AM 69.8 °F 60.8 °F 73% 29.90 in 10.0 mi SSW 27.6 mph 33.4 mph N/A   Scattered Clouds
11:35 AM 69.8 °F 60.8 °F 73% 29.90 in 10.0 mi SSW 21.9 mph 33.4 mph N/A   Scattered Clouds
11:55 AM 71.6 °F 60.8 °F 69% 29.88 in 10.0 mi South 25.3 mph 31.1 mph N/A   Clear
12:15 PM 71.6 °F 60.8 °F 69% 29.87 in 10.0 mi South 25.3 mph 34.5 mph N/A   Clear
12:35 PM 73.4 °F 60.8 °F 65% 29.85 in 10.0 mi South 20.7 mph 32.2 mph N/A   Clear
1:15 PM 77.0 °F 59.0 °F 54% 29.83 in 10.0 mi SSW 26.5 mph 32.2 mph N/A   Clear
1:35 PM 77.0 °F 57.2 °F 50% 29.83 in 10.0 mi South 25.3 mph 31.1 mph N/A   Clear
1:55 PM 77.0 °F 57.2 °F 50% 29.82 in 10.0 mi SSW 23.0 mph 29.9 mph N/A   Clear
2:15 PM 77.0 °F 57.2 °F 50% 29.82 in 10.0 mi SSW 20.7 mph - N/A   Clear
2:35 PM 78.8 °F 57.2 °F 47% 29.82 in 10.0 mi South 18.4 mph 26.5 mph N/A   Clear
2:55 PM 77.0 °F 57.2 °F 50% 29.81 in 10.0 mi SSW 20.7 mph 27.6 mph N/A   Clear
3:15 PM 78.8 °F 55.4 °F 44% 29.81 in 10.0 mi SSW 20.7 mph 26.5 mph N/A   Clear
3:35 PM 78.8 °F 55.4 °F 44% 29.81 in 10.0 mi SSW 15.0 mph 27.6 mph N/A   Clear
3:55 PM 77.0 °F 55.4 °F 47% 29.81 in 10.0 mi SW 16.1 mph 23.0 mph N/A   Clear
4:15 PM 77.0 °F 53.6 °F 44% 29.82 in 10.0 mi SSW 17.3 mph - N/A   Clear
4:35 PM 77.0 °F 53.6 °F 44% 29.83 in 10.0 mi SSW 12.7 mph - N/A   Scattered Clouds
4:55 PM 77.0 °F 55.4 °F 47% 29.83 in 10.0 mi SSW 8.1 mph - N/A   Mostly Cloudy
5:15 PM 75.2 °F 55.4 °F 50% 29.84 in 10.0 mi SSW 6.9 mph - N/A   Overcast
5:35 PM 73.4 °F 55.4 °F 53% 29.84 in 10.0 mi South 6.9 mph - N/A   Overcast
5:55 PM 71.6 °F 57.2 °F 60% 29.85 in 10.0 mi South 6.9 mph - N/A   Overcast
6:15 PM 71.6 °F 59.0 °F 64% 29.87 in 10.0 mi South 8.1 mph - N/A   Overcast
6:35 PM 71.6 °F 59.0 °F 64% 29.87 in 10.0 mi South 8.1 mph - N/A   Mostly Cloudy
6:55 PM 69.8 °F 59.0 °F 68% 29.87 in 10.0 mi South 6.9 mph - N/A   Mostly Cloudy
7:15 PM 69.8 °F 53.6 °F 56% 29.90 in 10.0 mi NW 9.2 mph - N/A   Mostly Cloudy
7:35 PM 66.2 °F 39.2 °F 37% 29.91 in 10.0 mi NNW 15.0 mph - N/A   Mostly Cloudy
7:55 PM 62.6 °F 37.4 °F 39% 29.94 in 10.0 mi WNW 8.1 mph - N/A   Scattered Clouds
8:15 PM 60.8 °F 37.4 °F 42% 29.94 in 10.0 mi NNW 13.8 mph - N/A   Clear
8:35 PM 59.0 °F 37.4 °F 45% 29.96 in 10.0 mi NNW 9.2 mph - N/A   Clear
8:55 PM 57.2 °F 39.2 °F 51% 29.96 in 10.0 mi North 6.9 mph - N/A   Clear
9:15 PM 55.4 °F 39.2 °F 54% 29.97 in 10.0 mi NW 4.6 mph - N/A   Clear
9:35 PM 55.4 °F 41.0 °F 58% 29.98 in 10.0 mi NNW 9.2 mph - N/A   Clear
9:55 PM 55.4 °F 41.0 °F 58% 29.98 in 10.0 mi North 12.7 mph - N/A   Clear
10:15 PM 55.4 °F 41.0 °F 58% 29.99 in 10.0 mi North 13.8 mph - N/A   Clear
10:35 PM 55.4 °F 42.8 °F 63% 29.99 in 10.0 mi North 12.7 mph - N/A   Clear
10:55 PM 55.4 °F 42.8 °F 63% 30.00 in 10.0 mi North 13.8 mph - N/A   Clear
11:15 PM 55.4 °F 42.8 °F 63% 30.00 in 10.0 mi North 13.8 mph - N/A   Clear
11:35 PM 53.6 °F 42.8 °F 67% 30.01 in 10.0 mi North 12.7 mph - N/A   Clear
11:55 PM 53.6 °F 42.8 °F 67% 30.01 in 10.0 mi North 12.7 mph - N/A   Clear